AJAX123 YPAD-YPAD

Flight info

Callsign AJAX123
Flight time 0h 40m
Altitude 18000
Route DCT AD HAWKY MARGO AD
Aircraft BE20/L-SDFGHRZ/EB1

Departure

Time 2026-05-05 11:20
Airport Adelaide International Airport (YPAD)

Arrival

Time 2026-05-05 12:00
Airport Adelaide International Airport (YPAD)
Time Latitude Longitude Altitude Speed Heading
2026-05-05 10:53 -33.93358 151.18831 25 ft 0 kts 190°
2026-05-05 11:01 -34.95008 138.52214 28 ft 0 kts 50°
2026-05-05 11:03 -34.95007 138.52214 28 ft 0 kts 50°
2026-05-05 11:09 -34.95007 138.52216 28 ft 1 kts 52°
2026-05-05 11:10 -34.95016 138.52249 28 ft 5 kts 133°
2026-05-05 11:10 -34.95044 138.52260 28 ft 4 kts 214°
2026-05-05 11:10 -34.95078 138.52258 28 ft 6 kts 139°
2026-05-05 11:10 -34.95101 138.52293 28 ft 0 kts 127°
2026-05-05 11:11 -34.95111 138.52309 28 ft 4 kts 128°
2026-05-05 11:11 -34.95129 138.52351 28 ft 7 kts 77°
2026-05-05 11:11 -34.95081 138.52405 28 ft 11 kts 37°
2026-05-05 11:11 -34.95013 138.52469 28 ft 13 kts 37°
2026-05-05 11:12 -34.94932 138.52545 28 ft 15 kts 37°
2026-05-05 11:12 -34.94841 138.52631 28 ft 17 kts 37°
2026-05-05 11:12 -34.94749 138.52718 28 ft 14 kts 37°
2026-05-05 11:12 -34.94672 138.52791 28 ft 15 kts 38°
2026-05-05 11:13 -34.94589 138.52869 28 ft 14 kts 38°
2026-05-05 11:13 -34.94511 138.52940 28 ft 14 kts 37°
2026-05-05 11:13 -34.94444 138.53032 29 ft 14 kts 78°
2026-05-05 11:13 -34.94473 138.53145 31 ft 13 kts 123°
2026-05-05 11:14 -34.94517 138.53249 31 ft 14 kts 101°
2026-05-05 11:14 -34.94489 138.53365 31 ft 15 kts 55°
2026-05-05 11:14 -34.94418 138.53471 31 ft 16 kts 50°
2026-05-05 11:14 -34.94341 138.53586 31 ft 17 kts 51°
2026-05-05 11:15 -34.94260 138.53699 33 ft 17 kts 50°
2026-05-05 11:15 -34.94179 138.53818 31 ft 19 kts 50°
2026-05-05 11:15 -34.94097 138.53938 34 ft 18 kts 50°
2026-05-05 11:15 -34.94014 138.54060 34 ft 18 kts 50°
2026-05-05 11:16 -34.93955 138.54149 35 ft 10 kts 60°
2026-05-05 11:16 -34.93963 138.54208 35 ft 8 kts 141°
2026-05-05 11:16 -34.93990 138.54236 35 ft 0 kts 141°
2026-05-05 11:17 -34.93991 138.54236 35 ft 0 kts 141°
2026-05-05 11:18 -34.94006 138.54251 34 ft 4 kts 140°
2026-05-05 11:18 -34.94038 138.54285 34 ft 7 kts 139°
2026-05-05 11:18 -34.94078 138.54300 34 ft 6 kts 206°
2026-05-05 11:18 -34.94091 138.54285 34 ft 0 kts 229°
2026-05-05 11:19 -34.94094 138.54280 34 ft 5 kts 229°
2026-05-05 11:19 -34.94270 138.54024 33 ft 85 kts 231°
2026-05-05 11:19 -34.94748 138.53313 261 ft 122 kts 229°
2026-05-05 11:20 -34.95349 138.52438 651 ft 149 kts 229°
2026-05-05 11:20 -34.95877 138.51306 1164 ft 162 kts 252°
2026-05-05 11:20 -34.95834 138.49947 1707 ft 171 kts 289°
2026-05-05 11:20 -34.95039 138.48866 2306 ft 177 kts 326°
2026-05-05 11:21 -34.93959 138.48141 2899 ft 179 kts 328°
2026-05-05 11:21 -34.92903 138.47412 3534 ft 175 kts 323°
2026-05-05 11:21 -34.91938 138.46507 4122 ft 178 kts 314°
2026-05-05 11:21 -34.91084 138.45430 4747 ft 180 kts 307°
2026-05-05 11:22 -34.90297 138.44235 5376 ft 181 kts 303°
2026-05-05 11:22 -34.89560 138.43007 5993 ft 182 kts 302°
2026-05-05 11:22 -34.88841 138.41751 6589 ft 184 kts 301°
2026-05-05 11:22 -34.88119 138.40466 7203 ft 186 kts 301°
2026-05-05 11:23 -34.87402 138.39174 7794 ft 187 kts 301°
2026-05-05 11:23 -34.86680 138.37869 8358 ft 189 kts 301°
2026-05-05 11:23 -34.85946 138.36540 8906 ft 190 kts 301°
2026-05-05 11:23 -34.85205 138.35199 9436 ft 192 kts 301°
2026-05-05 11:24 -34.84465 138.33859 9942 ft 193 kts 302°
2026-05-05 11:24 -34.83718 138.32507 10438 ft 197 kts 302°
2026-05-05 11:24 -34.82949 138.31114 11026 ft 198 kts 302°
2026-05-05 11:24 -34.82184 138.29730 11621 ft 199 kts 302°
2026-05-05 11:25 -34.81414 138.28339 12175 ft 200 kts 302°
2026-05-05 11:25 -34.80639 138.26936 12731 ft 203 kts 302°
2026-05-05 11:25 -34.79858 138.25525 13284 ft 204 kts 302°
2026-05-05 11:25 -34.79062 138.24089 13816 ft 206 kts 302°
2026-05-05 11:26 -34.78262 138.22646 14324 ft 207 kts 302°
2026-05-05 11:26 -34.77464 138.21205 14810 ft 209 kts 302°
2026-05-05 11:26 -34.76651 138.19739 15284 ft 211 kts 302°
2026-05-05 11:26 -34.75833 138.18266 15741 ft 212 kts 302°
2026-05-05 11:27 -34.75011 138.16785 16181 ft 214 kts 302°
2026-05-05 11:27 -34.74181 138.15289 16607 ft 215 kts 302°
2026-05-05 11:27 -34.73335 138.13766 17025 ft 217 kts 302°
2026-05-05 11:27 -34.72492 138.12248 17425 ft 218 kts 302°
2026-05-05 11:28 -34.71650 138.10736 17814 ft 219 kts 302°
2026-05-05 11:28 -34.70778 138.09168 18027 ft 229 kts 302°
2026-05-05 11:28 -34.69862 138.07518 18018 ft 244 kts 302°
2026-05-05 11:28 -34.68891 138.05775 18018 ft 256 kts 302°
2026-05-05 11:29 -34.67876 138.03957 18012 ft 265 kts 303°
2026-05-05 11:29 -34.66836 138.02090 17995 ft 264 kts 303°
2026-05-05 11:29 -34.65812 138.00258 17999 ft 263 kts 303°
2026-05-05 11:29 -34.64786 137.98427 17998 ft 263 kts 303°
2026-05-05 11:30 -34.63763 137.96594 17998 ft 262 kts 302°
2026-05-05 11:30 -34.62745 137.94771 17998 ft 262 kts 302°
2026-05-05 11:30 -34.61724 137.92944 17998 ft 261 kts 302°
2026-05-05 11:30 -34.60710 137.91127 17998 ft 261 kts 302°
2026-05-05 11:31 -34.59691 137.89307 17998 ft 261 kts 302°
2026-05-05 11:31 -34.58673 137.87486 17998 ft 261 kts 302°
2026-05-05 11:31 -34.57642 137.85646 17998 ft 261 kts 303°
2026-05-05 11:31 -34.56363 137.84128 17983 ft 263 kts 327°
2026-05-05 11:32 -34.54626 137.83414 17999 ft 264 kts 354°
2026-05-05 11:32 -34.52837 137.83752 17999 ft 265 kts 23°
2026-05-05 11:32 -34.51401 137.85071 18002 ft 264 kts 52°
2026-05-05 11:32 -34.50648 137.87085 18003 ft 262 kts 81°
2026-05-05 11:33 -34.50773 137.89238 18003 ft 259 kts 110°
2026-05-05 11:33 -34.51668 137.91092 18018 ft 256 kts 129°
2026-05-05 11:33 -34.52785 137.92798 18003 ft 258 kts 130°
2026-05-05 11:33 -34.53912 137.94464 18000 ft 258 kts 131°
2026-05-05 11:34 -34.55060 137.96143 18000 ft 259 kts 131°
2026-05-05 11:34 -34.56243 137.97778 17989 ft 259 kts 140°
2026-05-05 11:34 -34.57825 137.98758 17996 ft 254 kts 169°
2026-05-05 11:34 -34.59551 137.98691 18001 ft 251 kts 197°
2026-05-05 11:35 -34.61039 137.97612 18002 ft 251 kts 226°
2026-05-05 11:35 -34.61894 137.95796 18001 ft 251 kts 254°
2026-05-05 11:35 -34.61899 137.93707 18001 ft 254 kts 283°
2026-05-05 11:35 -34.61102 137.91805 18023 ft 255 kts 301°
2026-05-05 11:36 -34.60116 137.89992 18001 ft 257 kts 302°
2026-05-05 11:36 -34.59108 137.88190 18000 ft 258 kts 303°
2026-05-05 11:36 -34.58095 137.86397 17999 ft 259 kts 303°
2026-05-05 11:36 -34.57020 137.84665 17985 ft 261 kts 314°
2026-05-05 11:37 -34.55454 137.83554 17999 ft 262 kts 342°
2026-05-05 11:37 -34.53664 137.83447 17999 ft 264 kts 11°
2026-05-05 11:37 -34.52023 137.84390 18002 ft 264 kts 40°
2026-05-05 11:37 -34.50949 137.86185 18002 ft 263 kts 69°
2026-05-05 11:38 -34.50717 137.88330 18002 ft 260 kts 98°
2026-05-05 11:38 -34.51342 137.90341 18005 ft 257 kts 126°
2026-05-05 11:38 -34.52410 137.92068 18014 ft 257 kts 129°
2026-05-05 11:38 -34.53524 137.93785 17999 ft 258 kts 130°
2026-05-05 11:39 -34.54638 137.95473 18000 ft 259 kts 130°
2026-05-05 11:39 -34.55776 137.97183 17999 ft 259 kts 131°
2026-05-05 11:39 -34.57176 137.98503 17980 ft 256 kts 158°
2026-05-05 11:39 -34.58896 137.98839 18004 ft 252 kts 186°
2026-05-05 11:40 -34.60504 137.98148 18000 ft 251 kts 214°
2026-05-05 11:40 -34.61646 137.96576 18002 ft 251 kts 243°
2026-05-05 11:40 -34.62002 137.94510 18001 ft 253 kts 272°
2026-05-05 11:40 -34.61469 137.92502 18007 ft 255 kts 299°
2026-05-05 11:41 -34.60411 137.90747 17994 ft 259 kts 315°
2026-05-05 11:41 -34.58899 137.89583 18007 ft 260 kts 336°
2026-05-05 11:41 -34.57142 137.89084 18001 ft 263 kts 355°
2026-05-05 11:41 -34.55328 137.89244 18001 ft 264 kts 12°
2026-05-05 11:42 -34.53615 137.90033 18000 ft 265 kts 29°
2026-05-05 11:42 -34.52185 137.91412 17999 ft 265 kts 47°
2026-05-05 11:42 -34.50905 137.93018 18006 ft 266 kts 44°
2026-05-05 11:42 -34.49562 137.94575 17999 ft 266 kts 43°
2026-05-05 11:43 -34.48218 137.96100 18000 ft 267 kts 43°
2026-05-05 11:43 -34.46857 137.97639 17999 ft 267 kts 43°
2026-05-05 11:43 -34.45650 137.99319 17989 ft 267 kts 58°
2026-05-05 11:43 -34.44905 138.01372 18001 ft 265 kts 76°
2026-05-05 11:44 -34.44707 138.03580 17999 ft 264 kts 94°
2026-05-05 11:44 -34.45066 138.05727 18001 ft 262 kts 111°
2026-05-05 11:44 -34.45942 138.07658 17999 ft 260 kts 129°
2026-05-05 11:44 -34.47252 138.09183 17799 ft 266 kts 145°
2026-05-05 11:45 -34.48754 138.10529 17474 ft 277 kts 144°
2026-05-05 11:45 -34.50326 138.11958 17118 ft 285 kts 144°
2026-05-05 11:45 -34.51916 138.13405 16760 ft 292 kts 144°
2026-05-05 11:45 -34.53556 138.14896 16357 ft 297 kts 144°
2026-05-05 11:46 -34.55217 138.16403 15965 ft 300 kts 144°
2026-05-05 11:46 -34.56893 138.17926 15571 ft 302 kts 144°
2026-05-05 11:46 -34.58565 138.19443 15178 ft 303 kts 144°
2026-05-05 11:46 -34.60247 138.20972 14792 ft 303 kts 144°
2026-05-05 11:47 -34.61929 138.22502 14480 ft 300 kts 144°
2026-05-05 11:47 -34.63589 138.24014 14153 ft 298 kts 144°
2026-05-05 11:47 -34.65226 138.25505 13831 ft 297 kts 144°
2026-05-05 11:47 -34.66883 138.27014 13503 ft 295 kts 144°
2026-05-05 11:48 -34.70119 138.29962 12855 ft 291 kts 144°
2026-05-05 11:48 -34.71738 138.31438 12529 ft 290 kts 144°
2026-05-05 11:48 -34.73333 138.32893 12261 ft 287 kts 144°
2026-05-05 11:49 -34.74928 138.34349 12009 ft 285 kts 145°
2026-05-05 11:49 -34.76503 138.35788 11757 ft 283 kts 145°
2026-05-05 11:49 -34.78055 138.37218 11507 ft 282 kts 143°
2026-05-05 11:49 -34.79270 138.39090 11220 ft 286 kts 116°
2026-05-05 11:50 -34.79696 138.41457 10977 ft 287 kts 94°
2026-05-05 11:50 -34.79739 138.43851 10750 ft 286 kts 92°
2026-05-05 11:50 -34.79732 138.46286 10491 ft 287 kts 91°
2026-05-05 11:50 -34.79715 138.48723 10119 ft 291 kts 91°
2026-05-05 11:51 -34.79702 138.51166 9742 ft 294 kts 91°
2026-05-05 11:51 -34.79694 138.53654 9293 ft 292 kts 91°
2026-05-05 11:51 -34.79600 138.56096 8837 ft 288 kts 80°
2026-05-05 11:51 -34.78762 138.58258 8411 ft 282 kts 59°
2026-05-05 11:52 -34.77750 138.60252 7991 ft 277 kts 59°
2026-05-05 11:52 -34.76716 138.62199 7553 ft 268 kts 57°
2026-05-05 11:52 -34.75702 138.64070 7120 ft 263 kts 57°
2026-05-05 11:52 -34.74709 138.65900 6692 ft 259 kts 57°
2026-05-05 11:53 -34.73842 138.67770 6241 ft 257 kts 73°
2026-05-05 11:53 -34.73808 138.69858 5800 ft 246 kts 107°
2026-05-05 11:53 -34.74634 138.71591 5372 ft 233 kts 137°
2026-05-05 11:53 -34.75811 138.72862 4960 ft 222 kts 141°
2026-05-05 11:54 -34.76976 138.74020 4517 ft 214 kts 146°
2026-05-05 11:54 -34.78302 138.74683 4240 ft 202 kts 174°
2026-05-05 11:54 -34.79610 138.74553 3940 ft 184 kts 196°
2026-05-05 11:54 -34.80624 138.73732 3772 ft 172 kts 229°
2026-05-05 11:55 -34.81417 138.72630 3815 ft 175 kts 228°
2026-05-05 11:55 -34.82215 138.71503 3632 ft 176 kts 228°
2026-05-05 11:55 -34.82999 138.70381 3411 ft 172 kts 228°
2026-05-05 11:55 -34.83773 138.69267 3195 ft 170 kts 229°
2026-05-05 11:56 -34.84529 138.68175 2972 ft 169 kts 229°
2026-05-05 11:56 -34.85283 138.67082 2749 ft 168 kts 229°
2026-05-05 11:56 -34.86034 138.65994 2530 ft 168 kts 229°
2026-05-05 11:56 -34.86783 138.64908 2359 ft 163 kts 229°
2026-05-05 11:57 -34.87504 138.63860 2136 ft 160 kts 229°
2026-05-05 11:57 -34.88203 138.62845 1886 ft 155 kts 229°
2026-05-05 11:57 -34.88886 138.61852 1660 ft 151 kts 229°
2026-05-05 11:57 -34.89559 138.60877 1444 ft 147 kts 229°
2026-05-05 11:58 -34.90201 138.59946 1240 ft 141 kts 229°
2026-05-05 11:58 -34.90810 138.59059 1090 ft 129 kts 229°
2026-05-05 11:58 -34.91376 138.58238 897 ft 122 kts 229°
2026-05-05 11:58 -34.91895 138.57483 724 ft 114 kts 228°
2026-05-05 11:59 -34.92394 138.56760 572 ft 107 kts 228°
2026-05-05 11:59 -34.92855 138.56090 436 ft 102 kts 228°
2026-05-05 11:59 -34.93313 138.55423 324 ft 103 kts 230°
2026-05-05 11:59 -34.93775 138.54747 197 ft 105 kts 229°
2026-05-05 12:00 -34.94233 138.54077 46 ft 99 kts 228°
2026-05-05 12:00 -34.94607 138.53536 31 ft 59 kts 229°
2026-05-05 12:00 -34.94809 138.53238 29 ft 35 kts 230°
2026-05-05 12:00 -34.94922 138.53075 28 ft 13 kts 230°
2026-05-05 12:01 -34.94935 138.52998 28 ft 8 kts 310°
2026-05-05 12:01 -34.94883 138.52988 28 ft 9 kts 15°
2026-05-05 12:01 -34.94816 138.53020 28 ft 11 kts 19°
2026-05-05 12:01 -34.94737 138.53055 28 ft 12 kts 20°
2026-05-05 12:02 -34.94649 138.53095 28 ft 14 kts 20°
2026-05-05 12:02 -34.94556 138.53136 29 ft 13 kts 21°
2026-05-05 12:02 -34.94489 138.53154 31 ft 9 kts 345°
2026-05-05 12:02 -34.94445 138.53087 30 ft 9 kts 283°
2026-05-05 12:03 -34.94446 138.53023 28 ft 8 kts 249°
2026-05-05 12:03 -34.94482 138.52969 28 ft 8 kts 218°
2026-05-05 12:03 -34.94525 138.52930 28 ft 7 kts 218°
2026-05-05 12:03 -34.94565 138.52890 28 ft 7 kts 218°
2026-05-05 12:04 -34.94607 138.52850 28 ft 8 kts 218°
2026-05-05 12:04 -34.94661 138.52800 28 ft 10 kts 217°
2026-05-05 12:04 -34.94727 138.52739 28 ft 12 kts 218°
2026-05-05 12:04 -34.94790 138.52678 28 ft 11 kts 217°
2026-05-05 12:05 -34.94854 138.52618 28 ft 13 kts 217°
2026-05-05 12:05 -34.94931 138.52545 28 ft 15 kts 217°
2026-05-05 12:05 -34.95013 138.52469 28 ft 14 kts 218°
2026-05-05 12:05 -34.95088 138.52399 28 ft 11 kts 217°
2026-05-05 12:06 -34.95129 138.52356 28 ft 6 kts 251°
2026-05-05 12:06 -34.95106 138.52301 28 ft 8 kts 307°
2026-05-05 12:06 -34.95075 138.52252 28 ft 6 kts 309°
2026-05-05 12:06 -34.95038 138.52264 28 ft 5 kts 354°
2026-05-05 12:07 -34.95010 138.52245 28 ft 1 kts 321°
2026-05-05 12:07 -34.95003 138.52220 28 ft 2 kts 233°
2026-05-05 12:07 -34.95010 138.52211 28 ft 0 kts 229°